This demonstration page uses our WeatherBlox Daily Observations layout. Learn more.

Hourly Observations for February 25, 2017

Temp ( °F °C ) Dew Point ( °F °C ) Humidity (%) Winds ( mph kmh ) Pressure ( in mb ) Visibility ( mi km ) Precip ( " mm )
12:54 am 00:54 Clear 25 -3.9 16 -8.9 69 69 NNW 17 28 30.15 1021 10 16.0934 0 0
1:54 am 01:54 Clear 23 -5 14 -10 68 68 NNW 14 22 30.16 1021 10 16.0934 0 0
2:54 am 02:54 Clear 22 -5.6 14 -10 71 71 NNW 9 15 30.17 1022 10 16.0934 0 0
3:54 am 03:54 Clear 20 -6.7 13 -10.6 74 74 NW 9 15 30.17 1022 10 16.0934 0 0
4:54 am 04:54 Clear 18 -7.8 12 -11.1 77 77 WNW 6 9 30.17 1022 10 16.0934 0 0
5:54 am 05:54 Clear 16 -8.9 11 -11.7 80 80 W 6 9 30.19 1022 10 16.0934 0 0
6:54 am 06:54 Clear 16 -8.9 10 -12.2 77 77 W 3 6 30.2 1023 10 16.0934 0 0
7:54 am 07:54 Sunny 16 -8.9 10 -12.2 77 77 SW 3 6 30.21 1023 10 16.0934 0 0
8:54 am 08:54 Sunny 18 -7.8 11 -11.7 74 74 WSW 6 9 30.22 1024 10 16.0934 0 0
9:54 am 09:54 Sunny 21 -6.1 13 -10.6 71 71 WSW 8 13 30.22 1023 10 16.0934 0 0
10:54 am 10:54 Sunny 23 -5 15 -9.4 72 72 SW 5 7 30.2 1023 10 16.0934 0 0
11:54 am 11:54 Mostly Sunny 25 -3.9 16 -8.9 69 69 SW 7 11 30.19 1022 10 16.0934 0 0
12:54 pm 12:54 Mostly Sunny 28 -2.2 17 -8.3 63 63 WSW 7 11 30.16 1021 10 16.0934 0 0
1:54 pm 13:54 Sunny 30 -1.1 19 -7.2 64 64 SW 7 11 30.12 1020 10 16.0934 0 0
2:54 pm 14:54 Sunny 33 0.6 18 -7.8 54 54 SSW 10 17 30.08 1019 10 16.0934 0 0
3:54 pm 15:54 Sunny 35 1.7 21 -6.1 57 57 S 13 20 30.06 1018 10 16.0934 0 0
4:54 pm 16:54 Sunny 36 2.2 23 -5 59 59 SSW 14 22 30.03 1017 10 16.0934 0 0
5:54 pm 17:54 Partly Cloudy 35 1.7 25 -3.9 67 67 S 8 13 30 1016 10 16.0934 0 0
6:54 pm 18:54 Mostly Clear 33 0.6 23 -5 66 66 SSE 7 11 29.99 1016 10 16.0934 0 0
7:54 pm 19:54 Clear 32 0 23 -5 69 69 S 3 6 29.97 1015 10 16.0934 0 0
8:54 pm 20:54 Clear 34 1.1 24 -4.4 67 67 SSW 9 15 29.96 1015 10 16.0934 0 0
9:54 pm 21:54 Clear 33 0.6 26 -3.3 75 75 SSW 7 11 29.95 1014 10 16.0934 0 0
10:54 pm 22:54 Clear 32 0 27 -2.8 82 82 SW 7 11 29.95 1014 10 16.0934 0 0
11:54 pm 23:54 Mostly Clear 32 0 28 -2.2 85 85 SW 8 13 29.94 1014 10 16.0934 0 0

Powered by AerisWeather